Regional Weather Roundup
Issued by NWS Sioux Falls, SD

Home | Current Version | Previous Version | Graphics & Text | Print | Product List | Glossary On
Versions: 1 2 3 4 5 6 7 8 9 10 11 12 13 14 15 16 17 18 19 20 21 22 23 24 25 26 27 28 29 30 31 32 33 34 35 36 37 38 39 40 41 42 43 44 45 46 47 48 49 50
000
ASUS43 KFSD 301510
RWRFSD

WEATHER ROUNDUP FOR SE SOUTH DAKOTA/SW MINNESOTA/NW IOWA
NATIONAL WEATHER SERVICE SIOUX FALLS SD
1000 AM CDT MON MAY 30 2016

NOTE: "FAIR" INDICATES FEW OR NO CLOUDS BELOW 12,000 FEET WITH NO
SIGNIFICANT WEATHER AND OR OBSTRUCTIONS TO VISIBILITY.


SDZ038>040-050-052>070-301600-
SOUTHEAST SOUTH DAKOTA

CITY           SKY/WX    TMP DP  RH WIND       PRES   REMARKS
BROOKINGS      MOSUNNY   70  55  59 S16       29.98S
CHAMBERLAIN    PTSUNNY   71  59  67 SE17G23   29.93F
HURON          CLOUDY    67  58  72 S15G21    29.92F
MADISON        FAIR      68  57  68 S15       30.00S
MITCHELL       CLOUDY    70  58  65 S17       29.96S
SIOUX FALLS    PTSUNNY   71  58  63 S12       30.00R
WINNER         FAIR      72  59  63 SE20G26   29.92F
YANKTON        SUNNY     70  55  60 SE8       29.98F
$$

MNZ071-072-080-081-089-090-097-098-301600-
SOUTHWEST MINNESOTA

CITY           SKY/WX    TMP DP  RH WIND       PRES   REMARKS
FAIRMONT       SUNNY     73  54  49 S7        30.02F
JACKSON        SUNNY     72  52  49 S8        30.03S
LUVERNE        SUNNY     70  54  56 S12       30.01S
MARSHALL       MOSUNNY   72  56  57 S12       29.99R
MONTEVIDEO     CLOUDY    73  57  56 SW5       29.99R
PIPESTONE      SUNNY     72  57  60 S9        30.01R
REDWOOD FALLS  CLOUDY    71  56  58 S8        29.99R
TRACY          CLOUDY    74  57  56 S7        30.00S
WINDOM         MOSUNNY   72  54  53 CALM      30.01F
WORTHINGTON    SUNNY     70  57  63 S9        30.02S
$$

IAZ001>003-012>014-020>022-031-032-NEZ013-014-SDZ071-301600-
NORTHWEST IOWA

CITY           SKY/WX    TMP DP  RH WIND       PRES   REMARKS
CHEROKEE       SUNNY     74  52  45 SE14G20   30.01F
DENISON        SUNNY     73  59  60 CALM      29.99F
ESTHERVILLE    SUNNY     70  57  63 SE13      30.03S
LE MARS        MOSUNNY   73  54  49 SE14G22   30.00F
ORANGE CITY    CLOUDY    72  57  60 SE9       30.00F
SHELDON        SUNNY     73  57  56 SE14      30.00S
SIOUX CITY     SUNNY     74  57  55 SE12      29.99F
SPENCER        SUNNY     71  58  63 SE12      30.02F
STORM LAKE     SUNNY     75  48  38 SE18      30.03S
$$

ABBREVIATIONS USED IN REMARKS
   TC - TEMPERATURE IN CELSIUS
  WCI - WIND CHILL INDEX
   HX - HEAT INDEX
  VSB - VISIBILITY





USA.gov is the U.S. government's official web portal to all federal, state and local government web resources and services.